This is the latest recevied weather packets stored in our database for station/object WB4ZUT. If no packets are shown the sender has not sent any weather packets the latest 10 day(s).
| Time | Temp. | Humidity | Pressure | Rain* | Wind** | Luminosity | Snow |
|---|---|---|---|---|---|---|---|
| 1777733140 | 9.44° C | 87% | 1018.7 hPa | 0 mm | - | 183 W/m² | - |
| 1777732838 | 9.44° C | 85% | 1018.9 hPa | 0 mm | - | 167 W/m² | - |
| 1777732534 | 9.44° C | 85% | 1018.8 hPa | 0 mm | - | 168 W/m² | - |
| 1777732232 | 10° C | 87% | 1018.8 hPa | 0 mm | - | 205 W/m² | - |
| 1777731929 | 9.44° C | 87% | 1019 hPa | 1.27 mm | - | 220 W/m² | - |
| 1777731626 | 10° C | 88% | 1018.8 hPa | 1.27 mm | - | 158 W/m² | - |
| 1777731323 | 9.44° C | 87% | 1019 hPa | 0 mm | - | 156 W/m² | - |
| 1777731021 | 9.44° C | 87% | 1019 hPa | 0 mm | - | 111 W/m² | - |
| 1777730719 | 9.44° C | 86% | 1019 hPa | 0 mm | - | 98 W/m² | - |
| 1777730415 | 9.44° C | 87% | 1019.1 hPa | 0 mm | - | 88 W/m² | - |
| 1777730110 | 9.44° C | 87% | 1018.9 hPa | 0 mm | - | 101 W/m² | - |
| 1777729808 | 9.44° C | 86% | 1018.9 hPa | 0 mm | - | 110 W/m² | - |
| 1777729505 | 9.44° C | 86% | 1018.8 hPa | 0 mm | - | 89 W/m² | - |
| 1777729201 | 9.44° C | 86% | 1018.7 hPa | 1.78 mm | - | 90 W/m² | - |
| 1777728898 | 9.44° C | 85% | 1018.8 hPa | 1.78 mm | - | 72 W/m² | - |
| 1777728595 | 9.44° C | 84% | 1018.9 hPa | 0 mm | - | 50 W/m² | - |
| 1777728292 | 8.89° C | 84% | 1018.6 hPa | 0 mm | - | 45 W/m² | - |
| 1777727989 | 9.44° C | 85% | 1018.8 hPa | 0 mm | - | 65 W/m² | - |
| 1777727686 | 9.44° C | 85% | 1018.5 hPa | 0 mm | - | 63 W/m² | - |
| 1777727383 | 9.44° C | 83% | 1018.6 hPa | 0 mm | - | 59 W/m² | - |
| 1777727080 | 8.89° C | 84% | 1018.5 hPa | 0 mm | - | 59 W/m² | - |
| 1777726778 | 9.44° C | 86% | 1018.6 hPa | 0 mm | - | 75 W/m² | - |
| 1777726474 | 8.89° C | 86% | 1018.6 hPa | 0 mm | - | 76 W/m² | - |
| 1777726171 | 8.89° C | 86% | 1018.7 hPa | 0 mm | - | 88 W/m² | - |
| 1777725868 | 8.89° C | 88% | 1018.4 hPa | 0 mm | - | 80 W/m² | - |
* Rain latest hour (hover to see other rain measurements)
** Current wind speed in m/s (hover to see current wind gust speed)